| time (UTC) | temp F | wind direction | speed MPH | gust MPH | rain 1hr in | rain 24hr in | rain mn in | humidity % | barometer mb |
| 20260506081438 | 56 | 10 | 10.0 | 14.0 | 0.00 | 0.00 | 0.00 | 78 | 1009.5 |
| 20260506080938 | 56 | 13 | 9.0 | 13.0 | 0.00 | 0.00 | 0.00 | 78 | 1009.4 |
| 20260506080438 | 56 | 14 | 10.0 | 14.0 | 0.00 | 0.00 | 0.00 | 78 | 1009.4 |
| 20260506073439 | 57 | 19 | 5.0 | 12.0 | 0.00 | 0.00 | 0.00 | 79 | 1008.9 |
| 20260506072938 | 57 | 43 | 3.0 | 12.0 | 0.00 | 0.00 | 0.00 | 79 | 1008.7 |
| 20260506072439 | 57 | 21 | 7.0 | 12.0 | 0.00 | 0.00 | 0.00 | 79 | 1008.6 |
| 20260506071939 | 57 | 24 | 8.0 | 12.0 | 0.00 | 0.00 | 0.00 | 79 | 1008.5 |
| 20260506071438 | 57 | 46 | 6.0 | 12.0 | 0.00 | 0.00 | 0.00 | 79 | 1008.6 |
| 20260506070939 | 57 | 33 | 6.0 | 12.0 | 0.00 | 0.00 | 0.00 | 79 | 1008.8 |
| 20260506070438 | 57 | 25 | 7.0 | 12.0 | 0.00 | 0.00 | 0.00 | 79 | 1008.7 |
| 20260506062439 | 57 | 16 | 7.0 | 13.0 | 0.00 | 0.00 | 0.00 | 80 | 1008.9 |
| 20260506061939 | 57 | 15 | 9.0 | 13.0 | 0.00 | 0.00 | 0.00 | 80 | 1009.1 |
| 20260506060938 | 57 | 7 | 12.0 | 15.0 | 0.00 | 0.00 | 0.00 | 80 | 1009.2 |
| 20260506060438 | 57 | 11 | 10.0 | 15.0 | 0.00 | 0.00 | 0.00 | 80 | 1008.9 |
| 20260506050939 | 59 | 11 | 8.0 | 16.0 | 0.00 | 0.00 | 0.00 | 81 | 1009.0 |
| 20260506050439 | 59 | 9 | 9.0 | 16.0 | 0.00 | 0.00 | 0.00 | 81 | 1008.8 |
| 20260506044939 | 59 | 18 | 12.0 | 17.0 | 0.00 | 0.00 | 0.00 | 82 | 1009.0 |
| 20260506044439 | 59 | 13 | 12.0 | 17.0 | 0.00 | 0.00 | 0.00 | 82 | 1009.0 |
| 20260506043939 | 59 | 8 | 10.0 | 17.0 | 0.00 | 0.00 | 0.00 | 82 | 1009.0 |
| 20260506043440 | 59 | 11 | 12.0 | 15.0 | 0.00 | 0.00 | 0.00 | 82 | 1009.1 |
| 20260506042441 | 59 | 11 | 11.0 | 16.0 | 0.00 | 0.00 | 0.00 | 82 | 1008.9 |
| 20260506041939 | 59 | 9 | 10.0 | 16.0 | 0.00 | 0.00 | 0.00 | 82 | 1008.8 |
| 20260506041439 | 60 | 6 | 12.0 | 16.0 | 0.00 | 0.00 | 0.00 | 82 | 1008.8 |
| 20260506040940 | 60 | 0 | 11.0 | 17.0 | 0.00 | 0.00 | 0.00 | 82 | 1008.7 |
| 20260506040440 | 60 | 11 | 12.0 | 17.0 | 0.00 | 0.00 | 0.00 | 82 | 1008.6 |
| 20260506035939 | 60 | 24 | 11.0 | 15.0 | 0.00 | 0.00 | 0.00 | 82 | 1008.5 |
| 20260506035440 | 60 | 4 | 8.0 | 15.0 | 0.00 | 0.00 | 0.00 | 82 | 1008.5 |
| 20260506034940 | 60 | 8 | 12.0 | 16.0 | 0.00 | 0.00 | 0.00 | 82 | 1008.5 |
| 20260506034440 | 60 | 10 | 11.0 | 16.0 | 0.00 | 0.00 | 0.00 | 82 | 1008.6 |
| 20260506033940 | 60 | 5 | 12.0 | 18.0 | 0.00 | 0.00 | 0.00 | 82 | 1008.3 |
| 20260506033440 | 61 | 15 | 13.0 | 18.0 | 0.00 | 0.00 | 0.00 | 82 | 1008.1 |
| 20260506032940 | 61 | 22 | 10.0 | 17.0 | 0.00 | 0.00 | 0.00 | 82 | 1008.1 |
| 20260506032439 | 61 | 29 | 13.0 | 16.0 | 0.00 | 0.00 | 0.00 | 82 | 1008.0 |
| 20260506031939 | 61 | 4 | 11.0 | 16.0 | 0.00 | 0.00 | 0.00 | 82 | 1008.1 |
| 20260506031440 | 61 | 11 | 10.0 | 15.0 | 0.00 | 0.00 | 0.00 | 82 | 1008.0 |
| 20260506030940 | 61 | 358 | 11.0 | 17.0 | 0.00 | 0.00 | 0.00 | 82 | 1008.1 |
| 20260506030439 | 62 | 3 | 12.0 | 17.0 | 0.00 | 0.00 | 0.00 | 81 | 1008.0 |
| 20260506025939 | 62 | 6 | 12.0 | 15.0 | 0.00 | 0.00 | 0.00 | 81 | 1008.0 |
| 20260506025440 | 62 | 9 | 9.0 | 15.0 | 0.00 | 0.00 | 0.00 | 82 | 1007.7 |
| 20260506024940 | 62 | 9 | 12.0 | 15.0 | 0.00 | 0.00 | 0.00 | 81 | 1007.6 |
| 20260506024439 | 62 | 15 | 10.0 | 15.0 | 0.00 | 0.00 | 0.00 | 81 | 1007.5 |
| 20260506023941 | 63 | 15 | 10.0 | 14.0 | 0.00 | 0.00 | 0.00 | 81 | 1007.4 |
| 20260506022440 | 63 | 12 | 10.0 | 16.0 | 0.00 | 0.00 | 0.00 | 81 | 1006.9 |
| 20260506021940 | 64 | 6 | 9.0 | 15.0 | 0.00 | 0.00 | 0.00 | 81 | 1006.8 |
| 20260506020440 | 64 | 5 | 9.0 | 17.0 | 0.00 | 0.00 | 0.00 | 81 | 1006.2 |
| 20260506015942 | 65 | 358 | 8.0 | 13.0 | 0.00 | 0.00 | 0.00 | 80 | 1006.2 |
| 20260506015441 | 65 | 0 | 7.0 | 13.0 | 0.00 | 0.00 | 0.00 | 80 | 1006.2 |
| 20260506014941 | 66 | 12 | 9.0 | 14.0 | 0.00 | 0.00 | 0.00 | 80 | 1006.0 |
| 20260506014440 | 66 | 13 | 6.0 | 14.0 | 0.00 | 0.00 | 0.00 | 80 | 1005.9 |
| 20260506013940 | 66 | 12 | 11.0 | 15.0 | 0.00 | 0.00 | 0.00 | 79 | 1005.8 |
| 20260506013441 | 66 | 10 | 10.0 | 15.0 | 0.00 | 0.00 | 0.00 | 79 | 1005.6 |
| 20260506012940 | 67 | 17 | 11.0 | 16.0 | 0.00 | 0.00 | 0.00 | 78 | 1005.5 |
| 20260506012440 | 67 | 40 | 7.0 | 16.0 | 0.00 | 0.00 | 0.00 | 79 | 1005.4 |
| 20260506011941 | 67 | 31 | 9.0 | 12.0 | 0.00 | 0.00 | 0.00 | 79 | 1005.2 |
| 20260506011440 | 67 | 24 | 7.0 | 16.0 | 0.00 | 0.00 | 0.00 | 79 | 1005.3 |
| 20260506010942 | 67 | 3 | 8.0 | 16.0 | 0.00 | 0.00 | 0.00 | 79 | 1004.9 |
| 20260506010440 | 67 | 0 | 7.0 | 14.0 | 0.00 | 0.00 | 0.00 | 79 | 1004.6 |
| 20260506005940 | 67 | 357 | 10.0 | 15.0 | 0.00 | 0.00 | 0.00 | 79 | 1004.5 |
| 20260506005442 | 68 | 351 | 10.0 | 15.0 | 0.00 | 0.00 | 0.00 | 79 | 1004.6 |
| 20260506004940 | 68 | 341 | 12.0 | 16.0 | 0.00 | 0.00 | 0.00 | 78 | 1004.5 |
| 20260506003941 | 68 | 336 | 13.0 | 15.0 | 0.00 | 0.00 | 0.00 | 78 | 1004.4 |
| 20260506003441 | 68 | 350 | 9.0 | 16.0 | 0.00 | 0.00 | 0.00 | 78 | 1004.4 |
| 20260506002940 | 68 | 337 | 11.0 | 16.0 | 0.00 | 0.00 | 0.00 | 77 | 1004.2 |
| 20260506002441 | 69 | 343 | 13.0 | 17.0 | 0.00 | 0.00 | 0.00 | 77 | 1004.3 |
| 20260506001941 | 69 | 348 | 9.0 | 20.0 | 0.00 | 0.00 | 0.00 | 77 | 1004.0 |
| 20260506001441 | 69 | 351 | 13.0 | 20.0 | 0.00 | 0.00 | 0.00 | 76 | 1004.3 |
| 20260506000941 | 69 | 353 | 13.0 | 20.0 | 0.00 | 0.00 | 0.00 | 76 | 1004.2 |
| 20260506000440 | 70 | 343 | 13.0 | 20.0 | 0.00 | 0.00 | 0.00 | 76 | 1004.4 |
| 20260505235940 | 70 | 340 | 9.0 | 18.0 | 0.00 | 0.00 | 0.00 | 75 | 1004.2 |
| 20260505235441 | 70 | 348 | 10.0 | 18.0 | 0.00 | 0.00 | 0.00 | 75 | 1004.0 |
| 20260505234943 | 71 | 351 | 13.0 | 18.0 | 0.00 | 0.00 | 0.00 | 75 | 1004.1 |
| 20260505234441 | 71 | 349 | 11.0 | 18.0 | 0.00 | 0.00 | 0.00 | 75 | 1004.2 |
| 20260505233941 | 71 | 350 | 12.0 | 18.0 | 0.00 | 0.00 | 0.00 | 74 | 1004.1 |
| 20260505233441 | 72 | 348 | 11.0 | 18.0 | 0.00 | 0.00 | 0.00 | 75 | 1004.1 |
| 20260505232941 | 72 | 340 | 11.0 | 15.0 | 0.00 | 0.00 | 0.00 | 75 | 1003.9 |
| 20260505232441 | 73 | 353 | 10.0 | 17.0 | 0.00 | 0.00 | 0.00 | 73 | 1003.8 |
| 20260505231941 | 73 | 347 | 12.0 | 17.0 | 0.00 | 0.00 | 0.00 | 73 | 1003.4 |
| 20260505231441 | 73 | 348 | 10.0 | 17.0 | 0.00 | 0.00 | 0.00 | 72 | 1003.7 |
| 20260505230941 | 73 | 344 | 13.0 | 21.0 | 0.00 | 0.00 | 0.00 | 71 | 1003.9 |
| 20260505230441 | 74 | 334 | 13.0 | 21.0 | 0.00 | 0.00 | 0.00 | 71 | 1003.8 |
| 20260505225941 | 74 | 328 | 13.0 | 21.0 | 0.00 | 0.00 | 0.00 | 72 | 1003.9 |
| 20260505224441 | 77 | 332 | 11.0 | 16.0 | 0.00 | 0.00 | 0.00 | 69 | 1003.4 |
| 20260505223941 | 77 | 332 | 11.0 | 16.0 | 0.00 | 0.00 | 0.00 | 69 | 1003.3 |
| 20260505223441 | 77 | 340 | 10.0 | 15.0 | 0.00 | 0.00 | 0.00 | 69 | 1003.1 |
| 20260505221941 | 78 | 344 | 10.0 | 15.0 | 0.00 | 0.00 | 0.00 | 69 | 1002.8 |
| 20260505221441 | 78 | 331 | 9.0 | 18.0 | 0.00 | 0.00 | 0.00 | 69 | 1002.7 |
| 20260505220942 | 79 | 337 | 11.0 | 18.0 | 0.00 | 0.00 | 0.00 | 68 | 1002.6 |
| 20260505220442 | 80 | 350 | 14.0 | 18.0 | 0.00 | 0.00 | 0.00 | 66 | 1002.6 |
| 20260505215942 | 82 | 352 | 12.0 | 18.0 | 0.00 | 0.00 | 0.00 | 64 | 1002.4 |
| 20260505215442 | 83 | 337 | 11.0 | 14.0 | 0.00 | 0.00 | 0.00 | 60 | 1002.2 |
| 20260505214942 | 83 | 324 | 10.0 | 13.0 | 0.00 | 0.00 | 0.00 | 60 | 1002.3 |
| 20260505214441 | 82 | 323 | 9.0 | 14.0 | 0.00 | 0.00 | 0.00 | 61 | 1002.3 |
| 20260505213942 | 82 | 333 | 10.0 | 15.0 | 0.00 | 0.00 | 0.00 | 60 | 1002.4 |
| 20260505212941 | 84 | 324 | 8.0 | 17.0 | 0.00 | 0.00 | 0.00 | 56 | 1002.5 |
| 20260505212441 | 84 | 309 | 9.0 | 17.0 | 0.00 | 0.00 | 0.00 | 54 | 1002.4 |
| 20260505211942 | 84 | 308 | 10.0 | 17.0 | 0.00 | 0.00 | 0.00 | 53 | 1002.5 |
| 20260505210942 | 85 | 321 | 9.0 | 16.0 | 0.00 | 0.00 | 0.00 | 52 | 1002.5 |
| 20260505205942 | 84 | 298 | 12.0 | 15.0 | 0.00 | 0.00 | 0.00 | 49 | 1002.5 |
| 20260505205442 | 84 | 315 | 8.0 | 16.0 | 0.00 | 0.00 | 0.00 | 52 | 1002.6 |
| 20260505204942 | 84 | 320 | 12.0 | 16.0 | 0.00 | 0.00 | 0.00 | 50 | 1002.8 |
| 20260505204442 | 85 | 319 | 9.0 | 20.0 | 0.00 | 0.00 | 0.00 | 50 | 1002.7 |
| 20260505203942 | 86 | 301 | 10.0 | 20.0 | 0.00 | 0.00 | 0.00 | 52 | 1002.7 |
| 20260505203442 | 86 | 278 | 9.0 | 16.0 | 0.00 | 0.00 | 0.00 | 55 | 1002.6 |
| 20260505202942 | 87 | 262 | 9.0 | 16.0 | 0.00 | 0.00 | 0.00 | 56 | 1002.6 |
| 20260505202442 | 87 | 223 | 7.0 | 15.0 | 0.00 | 0.00 | 0.00 | 63 | 1002.5 |
| 20260505201942 | 87 | 228 | 7.0 | 16.0 | 0.00 | 0.00 | 0.00 | 64 | 1002.4 |
| 20260505201442 | 86 | 227 | 11.0 | 16.0 | 0.00 | 0.00 | 0.00 | 63 | 1002.7 |
| 20260505200942 | 86 | 216 | 9.0 | 16.0 | 0.00 | 0.00 | 0.00 | 64 | 1002.8 |
| 20260505200443 | 85 | 223 | 9.0 | 17.0 | 0.00 | 0.00 | 0.00 | 64 | 1002.8 |
| 20260505195942 | 85 | 235 | 10.0 | 17.0 | 0.00 | 0.00 | 0.00 | 63 | 1002.7 |
| 20260505195442 | 86 | 229 | 7.0 | 14.0 | 0.00 | 0.00 | 0.00 | 63 | 1002.7 |
| 20260505194942 | 86 | 228 | 8.0 | 13.0 | 0.00 | 0.00 | 0.00 | 63 | 1002.6 |
| 20260505193442 | 86 | 245 | 9.0 | 21.0 | 0.00 | 0.00 | 0.00 | 62 | 1002.8 |
| 20260505192442 | 86 | 217 | 12.0 | 21.0 | 0.00 | 0.00 | 0.00 | 63 | 1002.7 |
| 20260505191942 | 86 | 244 | 9.0 | 21.0 | 0.00 | 0.00 | 0.00 | 66 | 1002.6 |
| 20260505191442 | 85 | 219 | 9.0 | 17.0 | 0.00 | 0.00 | 0.00 | 65 | 1002.7 |
| 20260505190943 | 85 | 226 | 10.0 | 17.0 | 0.00 | 0.00 | 0.00 | 67 | 1002.7 |
| 20260505190443 | 85 | 213 | 7.0 | 15.0 | 0.00 | 0.00 | 0.00 | 66 | 1002.7 |
| 20260505185942 | 84 | 212 | 9.0 | 17.0 | 0.00 | 0.00 | 0.00 | 66 | 1002.7 |
| 20260505184943 | 84 | 217 | 7.0 | 20.0 | 0.00 | 0.00 | 0.00 | 66 | 1002.6 |
| 20260505182942 | 84 | 222 | 9.0 | 18.0 | 0.00 | 0.00 | 0.00 | 67 | 1002.8 |
| 20260505182443 | 83 | 218 | 9.0 | 17.0 | 0.00 | 0.00 | 0.00 | 67 | 1002.8 |
| 20260505180943 | 83 | 237 | 10.0 | 18.0 | 0.00 | 0.00 | 0.00 | 67 | 1002.7 |
| 20260505180443 | 83 | 218 | 9.0 | 18.0 | 0.00 | 0.00 | 0.00 | 68 | 1002.8 |
| 20260505175943 | 83 | 225 | 10.0 | 20.0 | 0.00 | 0.00 | 0.00 | 67 | 1002.9 |
| 20260505175443 | 83 | 219 | 10.0 | 20.0 | 0.00 | 0.00 | 0.00 | 68 | 1002.9 |
| 20260505174943 | 83 | 223 | 9.0 | 21.0 | 0.00 | 0.00 | 0.00 | 70 | 1002.8 |
| 20260505174443 | 82 | 222 | 14.0 | 22.0 | 0.00 | 0.00 | 0.00 | 69 | 1002.8 |
| 20260505173943 | 82 | 215 | 14.0 | 22.0 | 0.00 | 0.00 | 0.00 | 70 | 1002.8 |
| 20260505173444 | 81 | 217 | 14.0 | 22.0 | 0.00 | 0.00 | 0.00 | 72 | 1002.8 |
| 20260505172943 | 80 | 217 | 14.0 | 22.0 | 0.00 | 0.00 | 0.00 | 72 | 1002.8 |
| 20260505172443 | 80 | 220 | 13.0 | 22.0 | 0.00 | 0.00 | 0.00 | 73 | 1002.8 |
| 20260505171943 | 80 | 200 | 12.0 | 20.0 | 0.00 | 0.00 | 0.00 | 74 | 1002.7 |
| 20260505171443 | 80 | 216 | 10.0 | 20.0 | 0.00 | 0.00 | 0.00 | 75 | 1002.8 |
| 20260505170943 | 79 | 214 | 10.0 | 16.0 | 0.00 | 0.00 | 0.00 | 75 | 1002.8 |
| 20260505165943 | 78 | 202 | 11.0 | 18.0 | 0.00 | 0.00 | 0.00 | 76 | 1002.9 |
| 20260505165443 | 78 | 205 | 11.0 | 20.0 | 0.00 | 0.00 | 0.00 | 76 | 1002.8 |
| 20260505164944 | 78 | 206 | 9.0 | 20.0 | 0.00 | 0.00 | 0.00 | 76 | 1002.8 |
| 20260505164443 | 77 | 211 | 12.0 | 17.0 | 0.00 | 0.00 | 0.00 | 76 | 1002.8 |
| 20260505163943 | 77 | 205 | 10.0 | 20.0 | 0.00 | 0.00 | 0.00 | 76 | 1002.9 |
| 20260505163443 | 77 | 208 | 12.0 | 20.0 | 0.00 | 0.00 | 0.00 | 76 | 1002.9 |
| 20260505162943 | 77 | 207 | 10.0 | 18.0 | 0.00 | 0.00 | 0.00 | 77 | 1002.8 |
| 20260505161945 | 76 | 210 | 11.0 | 21.0 | 0.00 | 0.00 | 0.00 | 77 | 1002.8 |
| 20260505160943 | 76 | 216 | 14.0 | 23.0 | 0.00 | 0.00 | 0.00 | 77 | 1002.6 |
| 20260505160444 | 76 | 203 | 12.0 | 22.0 | 0.00 | 0.00 | 0.00 | 77 | 1002.6 |
| 20260505152444 | 76 | 210 | 11.0 | 26.0 | 0.00 | 0.00 | 0.00 | 78 | 1002.4 |
| 20260505151943 | 76 | 203 | 16.0 | 26.0 | 0.00 | 0.00 | 0.00 | 78 | 1002.1 |
| 20260505151444 | 76 | 211 | 14.0 | 24.0 | 0.00 | 0.00 | 0.00 | 78 | 1002.3 |
| 20260505150944 | 76 | 210 | 13.0 | 22.0 | 0.00 | 0.00 | 0.00 | 79 | 1002.4 |
| 20260505150444 | 75 | 208 | 13.0 | 22.0 | 0.00 | 0.00 | 0.00 | 79 | 1002.5 |
| 20260505140446 | 73 | 211 | 14.0 | 25.0 | 0.00 | 0.00 | 0.00 | 82 | 1002.1 |
| 20260505123945 | 71 | 209 | 13.0 | 24.0 | 0.00 | 0.00 | 0.00 | 84 | 1002.1 |
| 20260505123445 | 71 | 204 | 15.0 | 24.0 | 0.00 | 0.00 | 0.00 | 84 | 1001.9 |
| 20260505122945 | 71 | 208 | 14.0 | 23.0 | 0.00 | 0.00 | 0.00 | 84 | 1001.8 |
| 20260505122445 | 71 | 208 | 13.0 | 21.0 | 0.00 | 0.00 | 0.00 | 85 | 1001.7 |
| 20260505121945 | 70 | 206 | 12.0 | 23.0 | 0.00 | 0.00 | 0.00 | 84 | 1001.6 |
| 20260505120945 | 70 | 205 | 14.0 | 20.0 | 0.00 | 0.00 | 0.00 | 85 | 1001.5 |
| 20260505120445 | 70 | 203 | 13.0 | 21.0 | 0.00 | 0.00 | 0.00 | 85 | 1001.5 |
| 20260505115445 | 70 | 209 | 14.0 | 23.0 | 0.00 | 0.00 | 0.00 | 85 | 1001.5 |
| 20260505113946 | 70 | 207 | 13.0 | 20.0 | 0.00 | 0.00 | 0.00 | 85 | 1001.4 |
| 20260505112946 | 70 | 205 | 13.0 | 20.0 | 0.00 | 0.00 | 0.00 | 85 | 1001.5 |
| 20260505112445 | 70 | 207 | 11.0 | 21.0 | 0.00 | 0.00 | 0.00 | 85 | 1001.6 |
| 20260505111945 | 70 | 211 | 12.0 | 21.0 | 0.00 | 0.00 | 0.00 | 85 | 1001.5 |
| 20260505111445 | 70 | 209 | 13.0 | 20.0 | 0.00 | 0.00 | 0.00 | 85 | 1001.5 |
| 20260505110445 | 70 | 207 | 12.0 | 18.0 | 0.00 | 0.00 | 0.00 | 84 | 1001.5 |
| 20260505101946 | 71 | 196 | 14.0 | 21.0 | 0.00 | 0.00 | 0.00 | 83 | 1001.6 |
| 20260505101446 | 71 | 194 | 10.0 | 20.0 | 0.00 | 0.00 | 0.00 | 83 | 1001.6 |
| 20260505100946 | 71 | 205 | 12.0 | 21.0 | 0.00 | 0.00 | 0.00 | 83 | 1001.6 |
| 20260505095946 | 71 | 193 | 13.0 | 23.0 | 0.00 | 0.00 | 0.00 | 83 | 1001.6 |
| 20260505095446 | 71 | 199 | 14.0 | 23.0 | 0.00 | 0.00 | 0.00 | 83 | 1001.5 |
| 20260505094945 | 72 | 197 | 13.0 | 18.0 | 0.00 | 0.00 | 0.00 | 83 | 1001.5 |
| 20260505094446 | 72 | 192 | 11.0 | 20.0 | 0.00 | 0.00 | 0.00 | 82 | 1001.5 |
| 20260505093946 | 72 | 185 | 14.0 | 20.0 | 0.00 | 0.00 | 0.00 | 82 | 1001.5 |
| 20260505093445 | 72 | 185 | 11.0 | 23.0 | 0.00 | 0.00 | 0.00 | 82 | 1001.5 |
| 20260505092946 | 72 | 198 | 14.0 | 23.0 | 0.00 | 0.00 | 0.00 | 82 | 1001.5 |
| 20260505092446 | 72 | 186 | 14.0 | 21.0 | 0.00 | 0.00 | 0.00 | 82 | 1001.5 |
| 20260505091946 | 72 | 200 | 15.0 | 21.0 | 0.00 | 0.00 | 0.00 | 82 | 1001.6 |
| 20260505091446 | 72 | 204 | 13.0 | 20.0 | 0.00 | 0.00 | 0.00 | 82 | 1001.7 |
| 20260505090446 | 72 | 202 | 13.0 | 22.0 | 0.00 | 0.00 | 0.00 | 82 | 1001.8 |
| 20260505085946 | 72 | 199 | 13.0 | 22.0 | 0.00 | 0.00 | 0.00 | 82 | 1001.8 |
| 20260505085446 | 72 | 200 | 14.0 | 22.0 | 0.00 | 0.00 | 0.00 | 81 | 1001.8 |
| 20260505084946 | 72 | 200 | 11.0 | 20.0 | 0.00 | 0.00 | 0.00 | 81 | 1001.7 |
| 20260505083946 | 72 | 192 | 13.0 | 23.0 | 0.00 | 0.00 | 0.00 | 81 | 1001.9 |
| 20260505083446 | 72 | 196 | 14.0 | 23.0 | 0.00 | 0.00 | 0.00 | 80 | 1001.8 |
| 20260505082947 | 72 | 199 | 13.0 | 21.0 | 0.00 | 0.00 | 0.00 | 80 | 1001.8 |
| 20260505082446 | 72 | 194 | 12.0 | 20.0 | 0.00 | 0.00 | 0.00 | 80 | 1001.8 |